Total_Precipitation_Accumulation
1.54 1.76 2.03 2.32 2.39 2.41 2.32 2.20 2.01 1.63 1.11 0.81 0.54 0.39 0.32 0.25 0.21 0.21 0.19 0.22 0.25 0.30 0.37 0.32 0.34 0.31 0.26 0.26 0.29 0.33 0.33 0.30 0.30 0.32 0.29 0.25 0.26 0.26 0.23 0.22 0.29 0.36 0.46
1.09 1.16 1.31 1.58 1.54 1.56 1.60 1.51 1.41 1.11 0.72 0.56 0.43 0.36 0.30 0.20 0.15 0.13 0.12 0.11 0.13 0.18 0.25 0.32 0.26 0.27 0.27 0.26 0.26 0.28 0.26 0.23 0.25 0.30 0.29 0.22 0.22 0.22 0.14 0.22 0.26 0.30 0.45
0.69 0.67 0.76 0.91 1.13 1.40 1.32 1.13 1.06 0.88 0.62 0.48 0.37 0.31 0.26 0.21 0.17 0.14 0.11 0.10 0.09 0.10 0.15 0.23 0.25 0.28 0.25 0.28 0.33 0.30 0.28 0.21 0.20 0.25 0.31 0.25 0.20 0.23 0.21 0.24 0.26 0.30 0.43
0.37 0.45 0.50 0.58 0.75 0.95 0.97 0.93 0.90 0.82 0.59 0.43 0.29 0.23 0.19 0.16 0.14 0.12 0.10 0.09 0.08 0.07 0.08 0.11 0.16 0.23 0.26 0.34 0.26 0.29 0.31 0.26 0.19 0.20 0.22 0.21 0.22 0.24 0.24 0.26 0.25 0.30 0.37
0.17 0.28 0.34 0.41 0.45 0.52 0.63 0.73 0.86 0.91 0.67 0.47 0.32 0.26 0.20 0.16 0.13 0.12 0.11 0.10 0.11 0.11 0.12 0.12 0.11 0.12 0.19 0.26 0.29 0.35 0.32 0.32 0.28 0.22 0.19 0.20 0.18 0.19 0.17 0.20 0.24 0.24 0.20
0.10 0.18 0.22 0.27 0.33 0.39 0.44 0.50 0.65 0.79 0.67 0.50 0.38 0.33 0.31 0.25 0.19 0.16 0.16 0.16 0.18 0.20 0.19 0.20 0.20 0.20 0.18 0.17 0.19 0.24 0.30 0.35 0.36 0.28 0.22 0.24 0.21 0.16 0.14 0.11 0.13 0.19 0.15
0.05 0.09 0.13 0.15 0.22 0.27 0.28 0.29 0.40 0.52 0.49 0.39 0.35 0.34 0.42 0.43 0.39 0.32 0.27 0.24 0.22 0.24 0.23 0.23 0.25 0.27 0.28 0.25 0.20 0.16 0.20 0.28 0.33 0.31 0.28 0.23 0.18 0.18 0.20 0.16 0.09 0.10 0.09
0.02 0.03 0.06 0.10 0.14 0.17 0.20 0.21 0.29 0.35 0.34 0.28 0.27 0.26 0.27 0.29 0.34 0.40 0.35 0.34 0.34 0.29 0.24 0.22 0.23 0.26 0.30 0.31 0.28 0.22 0.20 0.22 0.26 0.29 0.34 0.29 0.15 0.15 0.20 0.21 0.20 0.17 0.13
0.01 0.01 0.02 0.06 0.08 0.08 0.12 0.14 0.21 0.26 0.25 0.26 0.23 0.19 0.17 0.15 0.18 0.20 0.19 0.23 0.34 0.33 0.26 0.21 0.20 0.23 0.26 0.30 0.32 0.30 0.29 0.27 0.24 0.28 0.35 0.34 0.24 0.17 0.15 0.21 0.26 0.29 0.23
0.01 0.01 0.01 0.03 0.06 0.07 0.11 0.14 0.18 0.20 0.21 0.22 0.20 0.18 0.19 0.16 0.17 0.13 0.10 0.11 0.16 0.19 0.21 0.19 0.17 0.18 0.20 0.24 0.29 0.34 0.40 0.42 0.38 0.34 0.36 0.37 0.35 0.32 0.24 0.23 0.26 0.30 0.30
0.02 0.02 0.02 0.03 0.03 0.06 0.10 0.12 0.16 0.16 0.16 0.19 0.20 0.21 0.20 0.18 0.16 0.14 0.11 0.11 0.11 0.10 0.11 0.13 0.13 0.13 0.14 0.17 0.23 0.28 0.39 0.53 0.60 0.58 0.51 0.45 0.45 0.44 0.38 0.34 0.30 0.30 0.34
0.03 0.04 0.03 0.03 0.03 0.06 0.10 0.12 0.13 0.13 0.12 0.17 0.22 0.22 0.24 0.24 0.21 0.17 0.14 0.15 0.14 0.13 0.13 0.13 0.13 0.11 0.09 0.11 0.15 0.20 0.27 0.39 0.55 0.71 0.74 0.65 0.58 0.53 0.45 0.40 0.37 0.36 0.40
0.04 0.04 0.06 0.08 0.06 0.08 0.11 0.14 0.17 0.17 0.16 0.19 0.23 0.28 0.30 0.30 0.29 0.26 0.25 0.26 0.24 0.20 0.18 0.18 0.19 0.16 0.15 0.15 0.16 0.17 0.18 0.22 0.31 0.49 0.69 0.79 0.75 0.62 0.55 0.48 0.42 0.41 0.41
0.04 0.05 0.06 0.10 0.10 0.09 0.14 0.17 0.21 0.23 0.26 0.31 0.37 0.39 0.42 0.44 0.44 0.35 0.31 0.32 0.34 0.32 0.31 0.33 0.32 0.28 0.25 0.24 0.26 0.26 0.25 0.25 0.26 0.31 0.41 0.58 0.74 0.72 0.65 0.57 0.51 0.50 0.52
0.06 0.07 0.10 0.12 0.16 0.17 0.19 0.24 0.34 0.39 0.48 0.57 0.59 0.54 0.49 0.48 0.48 0.47 0.45 0.46 0.50 0.52 0.55 0.51 0.45 0.43 0.40 0.34 0.38 0.43 0.42 0.41 0.36 0.31 0.31 0.35 0.49 0.64 0.70 0.64 0.60 0.61 0.61
0.11 0.11 0.15 0.20 0.22 0.26 0.32 0.40 0.49 0.60 0.78 0.95 0.94 0.88 0.80 0.77 0.74 0.70 0.68 0.73 0.74 0.75 0.72 0.65 0.61 0.59 0.49 0.46 0.45 0.44 0.45 0.51 0.52 0.47 0.44 0.41 0.40 0.45 0.56 0.64 0.66 0.66 0.64
0.13 0.14 0.18 0.23 0.30 0.34 0.40 0.49 0.59 0.71 0.80 0.86 0.82 0.84 0.85 0.86 0.85 0.83 0.83 0.82 0.82 0.82 0.81 0.80 0.77 0.74 0.72 0.63 0.51 0.43 0.44 0.48 0.55 0.61 0.61 0.46 0.34 0.41 0.46 0.55 0.58 0.58 0.55
0.14 0.15 0.19 0.22 0.28 0.36 0.43 0.53 0.57 0.59 0.67 0.68 0.63 0.58 0.59 0.59 0.59 0.62 0.67 0.71 0.76 0.77 0.77 0.73 0.65 0.62 0.58 0.53 0.47 0.44 0.48 0.51 0.50 0.58 0.66 0.61 0.51 0.48 0.50 0.49 0.46 0.45 0.43
0.17 0.16 0.18 0.20 0.24 0.28 0.32 0.35 0.36 0.39 0.45 0.47 0.45 0.41 0.40 0.41 0.42 0.47 0.57 0.67 0.71 0.66 0.61 0.58 0.58 0.59 0.58 0.55 0.45 0.42 0.48 0.53 0.49 0.51 0.56 0.60 0.56 0.47 0.39 0.42 0.38 0.35 0.36
0.16 0.14 0.13 0.15 0.16 0.18 0.20 0.23 0.27 0.31 0.35 0.37 0.36 0.35 0.36 0.37 0.39 0.43 0.47 0.50 0.52 0.52 0.50 0.46 0.48 0.53 0.57 0.56 0.43 0.40 0.46 0.52 0.51 0.55 0.61 0.65 0.59 0.46 0.34 0.38 0.42 0.36 0.32
0.15 0.12 0.10 0.11 0.13 0.15 0.18 0.21 0.22 0.24 0.24 0.25 0.27 0.27 0.28 0.32 0.33 0.36 0.38 0.41 0.44 0.43 0.41 0.39 0.41 0.46 0.47 0.43 0.31 0.28 0.36 0.43 0.47 0.47 0.50 0.60 0.54 0.42 0.30 0.32 0.37 0.32 0.33
0.12 0.11 0.10 0.10 0.12 0.15 0.17 0.19 0.19 0.18 0.17 0.19 0.22 0.24 0.26 0.28 0.30 0.34 0.35 0.35 0.34 0.32 0.32 0.33 0.34 0.40 0.44 0.35 0.26 0.18 0.21 0.31 0.39 0.49 0.53 0.60 0.58 0.44 0.36 0.31 0.30 0.25 0.23
0.10 0.09 0.09 0.09 0.11 0.13 0.15 0.18 0.18 0.17 0.18 0.21 0.22 0.23 0.24 0.27 0.31 0.35 0.36 0.37 0.37 0.36 0.33 0.30 0.27 0.29 0.38 0.37 0.19 0.14 0.13 0.21 0.34 0.55 0.70 0.74 0.70 0.60 0.49 0.42 0.40 0.31 0.26
0.07 0.08 0.08 0.09 0.10 0.11 0.13 0.16 0.17 0.19 0.21 0.22 0.21 0.21 0.21 0.21 0.25 0.32 0.36 0.37 0.37 0.36 0.33 0.31 0.31 0.31 0.36 0.37 0.32 0.25 0.17 0.17 0.26 0.47 0.66 0.79 0.85 0.81 0.70 0.61 0.55 0.41 0.35
0.07 0.07 0.08 0.09 0.09 0.09 0.10 0.11 0.15 0.19 0.22 0.23 0.21 0.20 0.18 0.19 0.22 0.27 0.29 0.26 0.28 0.25 0.23 0.24 0.26 0.29 0.30 0.25 0.19 0.19 0.19 0.19 0.23 0.39 0.66 0.87 1.01 1.05 1.03 0.91 0.81 0.70 0.58
0.10 0.09 0.09 0.08 0.08 0.07 0.07 0.08 0.10 0.17 0.24 0.27 0.24 0.21 0.19 0.20 0.22 0.23 0.24 0.23 0.20 0.18 0.19 0.20 0.18 0.14 0.15 0.13 0.10 0.09 0.10 0.12 0.18 0.37 0.63 0.86 1.04 1.11 1.22 1.23 1.15 0.99 0.84